Starlink 30967

operational
NORAD ID: 58416 Int'l Des: 2023-180 Owner: SPXS Country: US Constellation: starlink
LEOCIRCULAR

About Starlink 30967

Description loading...

Live Position

Loading 3D Globe...

Upcoming Passes

Altitude History

Altitude vs Time

uPlot chart will show altitude changes over time

Two-Line Element Set

1 58416U 23180Q 26102.34885909 -.00000331 00000-0 -24953-5 0 9992
2 58416 43.0001 222.4544 0001473 263.6796 96.3888 15.27575078132770
Epoch: Apr 12, 2026 • Age: 9 hours

Current Status

Altitude 482.8 km
Velocity 7.63 km/s
Sub-Earth Point 19.42°N, 75.68°W
Launch Date Nov 22, 2023
Age 2.3 years
Type internet

Technical Details

Classification Payload
Mass 730.00 kg
Dry Mass 700.00 kg
Total Mass 730.00 kg
Length 0.30 m
Diameter 4.10 m
Span 29.00 m
Shape Box + pan
Manufacturer SPXS
Bus Type Starlink V2M
Phase Status In Orbit
Owner/State SPXS/US

Large Constellations

Loading constellations...